Tracking 19832 objects as of 24-Aug-2019
HD Live streaming from Space Station
objects crossing your sky now

COSMOS 2251 DEB

Track COSMOS 2251 DEB now!
10-day predictions


NORAD ID: 34989
Int'l Code: 1993-036AFM
Perigee: 695.2 km
Apogee: 739.5 km
Inclination: 74.0 °
Period: 99.0 minutes
Semi major axis: 7088 km
RCS: 0.05 m2 (small)
Launch date: June 16, 1993
Source: Commonwealth of Independent States (former USSR) (CIS)
Launch site: PLESETSK MISSILE AND SPACE COMPLEX (PKMTR)

Note: This is SATELLITE DEBRIS
aabbcc
Your satellite tracking list
Your tracking list is empty




NASA's NSSDC Master Catalog

Two Line Element Set (TLE):
1 34989U 93036AFM 19235.83130177 +.00000447 +00000-0 +11064-3 0  9994
2 34989 074.0229 019.8418 0031244 006.0931 354.0605 14.54735654543530
Source of the keplerian elements: AFSPC